Regional Weather Roundup
Issued by NWS

Home | Current Version | Previous Version | Text Only | Print | Product List | Glossary Off
Versions: 1 2 3 4 5 6 7 8 9 10 11 12 13 14 15 16 17 18 19 20 21 22 23 24 25 26 27 28 29 30 31 32 33 34 35 36 37 38 39 40 41 42 43 44 45 46 47 48 49 50

884
ASUS45 KBOI 041010
RWRID

IDAHO REGIONAL WEATHER ROUNDUP
NATIONAL WEATHER SERVICE BOISE ID
400 AM MDT WED MAY 04 2016

NOTE: "FAIR" INDICATES FEW OR NO CLOUDS BELOW 12000 FEET
WITH NO SIGNIFICANT WEATHER AND/OR OBSTRUCTIONS TO VISIBILITY

IDZ012-014-041100-
SOUTHWEST IDAHO


CITY           SKY/WX    TMP DP  RH WIND       PRES   REMARKS
BOISE          PTCLDY    59  35  40 SE5       29.98F
CALDWELL       PTCLDY    56  39  53 E9        29.97F
MOUNTAIN HOME  PTCLDY    54  34  46 E17       30.00F
$$

IDZ016-017-041100-
SOUTHCENTRAL IDAHO


CITY           SKY/WX    TMP DP  RH WIND       PRES   REMARKS
BURLEY         PTCLDY    50  32  50 SE5       30.10S
JEROME         PTCLDY    47  31  53 NE12      30.09F
TWIN FALLS     CLEAR     54  31  41 S13       30.07F
$$

IDZ019>023-041100-
SOUTHEAST IDAHO


CITY           SKY/WX    TMP DP  RH WIND       PRES   REMARKS
IDAHO FALLS    CLEAR     39  31  72 N5        30.18S
POCATELLO      CLEAR     42  37  82 SE5       30.16F
REXBURG        CLEAR     40  31  70 CALM      30.18S
$$

IDZ006-010-011-018-031-032-041100-
CENTRAL IDAHO MOUNTAINS


CITY           SKY/WX    TMP DP  RH WIND       PRES   REMARKS
MCCALL         PTCLDY    41  35  79 CALM      30.10F
HAILEY         PTCLDY    43  32  65 NW9       30.20S
STANLEY          N/A     32  25  75 CALM      30.23F
SALMON         CLEAR     41  28  60 CALM      30.12R
CHALLIS        PTCLDY    45  26  47 E3        30.17S
$$

IDZ002-004-006-007-026-041100-
NORTHERN IDAHO


CITY           SKY/WX    TMP DP  RH WIND       PRES   REMARKS
LEWISTON       MOCLDY    56  45  66 SE9       29.98R
LOWELL           N/A     51  47  86 N5        30.04R
COEUR D`ALENE  PTCLDY    55  43  62 SE12      29.95S
MULLAN PASS    PTCLDY    53  28  38 S6        30.12F
$$




USA.gov is the U.S. government's official web portal to all federal, state and local government web resources and services.